NKS4821 KDTW-KMYR

Flight info

Callsign NKS4821
Flight time N/A
Altitude 39000
Route LIDDS4 GRIVY EKN RDU/N0440F380 FAY
Aircraft A20N/M-SDE2E3FGHIRWXY/LB1

Departure

Time N/A
Airport Detroit Metropolitan Wayne County Airport (KDTW)

Arrival

Time 2026-05-09 19:03
Airport Myrtle Beach International Airport (KMYR)
Time Latitude Longitude Altitude Speed Heading
2026-05-09 18:40 35.23705 -78.84921 20252 ft 322 kts 194°
2026-05-09 18:40 35.21633 -78.85134 19948 ft 321 kts 194°
2026-05-09 18:40 35.19412 -78.85363 19624 ft 319 kts 194°
2026-05-09 18:41 35.17204 -78.85591 19305 ft 317 kts 194°
2026-05-09 18:41 35.15008 -78.85816 18984 ft 316 kts 194°
2026-05-09 18:41 35.12825 -78.86040 18670 ft 314 kts 193°
2026-05-09 18:41 35.10649 -78.86264 18356 ft 313 kts 193°
2026-05-09 18:42 35.08486 -78.86486 18029 ft 312 kts 193°
2026-05-09 18:42 35.06334 -78.86706 17732 ft 310 kts 193°
2026-05-09 18:42 35.04192 -78.86924 17445 ft 308 kts 193°
2026-05-09 18:42 35.02062 -78.87141 17127 ft 306 kts 193°
2026-05-09 18:43 34.99944 -78.87357 16826 ft 304 kts 193°
2026-05-09 18:43 34.97838 -78.87564 16526 ft 303 kts 193°
2026-05-09 18:43 34.95744 -78.87758 16221 ft 301 kts 193°
2026-05-09 18:43 34.93660 -78.87950 15921 ft 299 kts 193°
2026-05-09 18:44 34.91589 -78.88139 15621 ft 298 kts 193°
2026-05-09 18:44 34.89527 -78.88328 15318 ft 296 kts 193°
2026-05-09 18:44 34.87475 -78.88515 15027 ft 295 kts 193°
2026-05-09 18:44 34.85437 -78.88701 14732 ft 293 kts 193°
2026-05-09 18:45 34.84093 -78.88824 14541 ft 292 kts 193°
2026-05-09 18:45 34.82070 -78.89008 14248 ft 291 kts 193°
2026-05-09 18:45 34.80059 -78.89192 13965 ft 289 kts 193°
2026-05-09 18:45 34.78058 -78.89374 13675 ft 288 kts 193°
2026-05-09 18:46 34.76067 -78.89555 13372 ft 286 kts 193°
2026-05-09 18:46 34.74089 -78.89736 13098 ft 285 kts 193°
2026-05-09 18:46 34.72115 -78.89916 12823 ft 284 kts 193°
2026-05-09 18:46 34.70146 -78.90096 12545 ft 283 kts 193°
2026-05-09 18:47 34.68187 -78.90274 12258 ft 282 kts 193°
2026-05-09 18:47 34.66233 -78.90452 11984 ft 281 kts 192°
2026-05-09 18:47 34.64281 -78.90629 11703 ft 281 kts 192°
2026-05-09 18:47 34.62337 -78.90806 11427 ft 280 kts 192°
2026-05-09 18:48 34.60401 -78.90981 11148 ft 279 kts 192°
2026-05-09 18:48 34.58470 -78.91156 10865 ft 277 kts 192°
2026-05-09 18:48 34.56548 -78.91330 10597 ft 276 kts 192°
2026-05-09 18:48 34.54659 -78.91498 10452 ft 268 kts 192°
2026-05-09 18:49 34.52810 -78.91663 10208 ft 265 kts 192°
2026-05-09 18:49 34.50982 -78.91830 9958 ft 263 kts 192°
2026-05-09 18:49 34.49162 -78.91996 9704 ft 262 kts 192°
2026-05-09 18:49 34.47351 -78.92162 9451 ft 261 kts 192°
2026-05-09 18:50 34.45538 -78.92327 9204 ft 261 kts 192°
2026-05-09 18:50 34.43733 -78.92490 8965 ft 260 kts 192°
2026-05-09 18:50 34.41936 -78.92652 8713 ft 258 kts 192°
2026-05-09 18:50 34.40152 -78.92813 8493 ft 257 kts 191°
2026-05-09 18:51 34.38371 -78.92974 8259 ft 256 kts 192°
2026-05-09 18:51 34.36602 -78.93133 8027 ft 254 kts 192°
2026-05-09 18:51 34.34841 -78.93292 7807 ft 254 kts 191°
2026-05-09 18:51 34.33086 -78.93451 7556 ft 253 kts 191°
2026-05-09 18:52 34.31331 -78.93610 7332 ft 252 kts 191°
2026-05-09 18:52 34.29589 -78.93766 7100 ft 251 kts 191°
2026-05-09 18:52 34.27851 -78.93923 6876 ft 250 kts 191°
2026-05-09 18:52 34.26115 -78.94080 6635 ft 249 kts 190°
2026-05-09 18:53 34.24389 -78.94235 6400 ft 249 kts 190°
2026-05-09 18:53 34.22663 -78.94390 6185 ft 249 kts 190°
2026-05-09 18:53 34.20939 -78.94544 5962 ft 249 kts 189°
2026-05-09 18:53 34.19205 -78.94699 5718 ft 250 kts 189°
2026-05-09 18:54 34.17479 -78.94854 5484 ft 247 kts 189°
2026-05-09 18:54 34.15782 -78.95006 5266 ft 243 kts 189°
2026-05-09 18:54 34.14097 -78.95158 5058 ft 243 kts 189°
2026-05-09 18:54 34.12414 -78.95309 4838 ft 242 kts 189°
2026-05-09 18:55 34.10745 -78.95459 4609 ft 241 kts 188°
2026-05-09 18:55 34.09069 -78.95610 4398 ft 241 kts 188°
2026-05-09 18:55 34.07405 -78.95759 4178 ft 239 kts 188°
2026-05-09 18:55 34.05738 -78.95908 3965 ft 240 kts 188°
2026-05-09 18:56 34.04099 -78.96055 3745 ft 238 kts 188°
2026-05-09 18:56 34.02449 -78.96203 3529 ft 237 kts 188°
2026-05-09 18:56 34.00801 -78.96350 3322 ft 236 kts 188°
2026-05-09 18:56 33.99163 -78.96496 3111 ft 236 kts 188°
2026-05-09 18:57 33.97526 -78.96643 2888 ft 235 kts 188°
2026-05-09 18:57 33.95902 -78.96788 2704 ft 234 kts 187°
2026-05-09 18:57 33.94277 -78.96932 2483 ft 233 kts 187°
2026-05-09 18:57 33.92663 -78.97076 2278 ft 232 kts 187°
2026-05-09 18:58 33.91057 -78.97219 2067 ft 231 kts 187°
2026-05-09 18:58 33.89461 -78.97360 1956 ft 226 kts 187°
2026-05-09 18:58 33.87930 -78.97491 1995 ft 214 kts 187°
2026-05-09 18:58 33.86499 -78.97434 1972 ft 200 kts 176°
2026-05-09 18:59 33.85171 -78.97136 1876 ft 188 kts 171°
2026-05-09 18:59 33.83932 -78.96818 1700 ft 178 kts 171°
2026-05-09 18:59 33.82740 -78.96515 1559 ft 169 kts 173°
2026-05-09 18:59 33.81639 -78.96243 1575 ft 158 kts 173°
2026-05-09 19:00 33.80562 -78.95982 1605 ft 158 kts 173°
2026-05-09 19:00 33.78361 -78.95437 1598 ft 163 kts 173°
2026-05-09 19:00 33.77258 -78.95159 1553 ft 161 kts 173°
2026-05-09 19:01 33.76130 -78.94876 1501 ft 169 kts 172°
2026-05-09 19:01 33.74967 -78.94583 1228 ft 174 kts 174°
2026-05-09 19:01 33.73785 -78.94287 945 ft 171 kts 173°
2026-05-09 19:01 33.72647 -78.94003 742 ft 159 kts 169°
2026-05-09 19:02 33.71611 -78.93741 521 ft 146 kts 171°
2026-05-09 19:02 33.70647 -78.93497 302 ft 138 kts 170°
2026-05-09 19:02 33.69737 -78.93278 162 ft 131 kts 168°
2026-05-09 19:02 33.68869 -78.93054 46 ft 120 kts 169°
2026-05-09 19:03 33.68159 -78.92880 33 ft 81 kts 167°
2026-05-09 19:03 33.67730 -78.92769 34 ft 50 kts 165°
2026-05-09 19:03 33.67499 -78.92596 32 ft 30 kts 139°
2026-05-09 19:03 33.67366 -78.92457 33 ft 21 kts 135°
2026-05-09 19:04 33.67382 -78.92343 34 ft 15 kts 12°
2026-05-09 19:04 33.67480 -78.92357 34 ft 14 kts 348°
2026-05-09 19:04 33.67574 -78.92381 34 ft 14 kts 348°
2026-05-09 19:04 33.67667 -78.92405 34 ft 14 kts 348°
2026-05-09 19:05 33.67749 -78.92445 34 ft 12 kts 335°
2026-05-09 19:05 33.67827 -78.92487 34 ft 12 kts 335°
2026-05-09 19:05 33.67903 -78.92523 34 ft 11 kts 346°
2026-05-09 19:05 33.67980 -78.92542 35 ft 11 kts 348°
2026-05-09 19:06 33.68054 -78.92560 35 ft 11 kts 348°
2026-05-09 19:06 33.68126 -78.92569 35 ft 10 kts 12°
2026-05-09 19:06 33.68183 -78.92534 35 ft 9 kts 28°
2026-05-09 19:06 33.68218 -78.92491 33 ft 6 kts 54°
2026-05-09 19:07 33.68221 -78.92451 35 ft 5 kts 112°
2026-05-09 19:07 33.68210 -78.92416 35 ft 4 kts 107°
2026-05-09 19:07 33.68208 -78.92408 35 ft 0 kts 105°